DW8293 Weather Reports


Display with metric or nautical units.
time (UTC)temp
F
wind
direction
speed
MPH
gust
MPH
rain 1hr
in
rain 24hr
in
rain mn
in
humidity
%
barometer
mb
20260903040905 49 242 2.0 4.0 0.00 0.00 0.00 97 1000.7
20260903040005 49 247 2.0 4.0 0.00 0.00 0.00 96 1000.7
20260903035404 50 245 1.0 4.0 0.00 0.00 0.00 96 1000.8
20260903034503 50 237 2.0 4.0 0.00 0.00 0.00 96 1000.7
20260903033624 50 224 2.0 4.0 0.00 0.00 0.00 95 1000.6
20260903032703 51 230 4.0 8.0 0.00 0.00 0.00 94 1000.7
20260903031826 51 231 5.0 7.0 0.00 0.00 0.00 94 1000.6
20260903030903 51 227 2.0 4.0 0.00 0.00 0.00 95 1000.7
20260903030003 50 231 2.0 4.0 0.00 0.00 0.00 95 1000.8
20260903025403 51 226 2.0 4.0 0.00 0.00 0.00 95 1000.8
20260903024503 51 225 2.0 4.0 0.00 0.00 0.00 94 1000.8
20260903023624 51 230 2.0 6.0 0.00 0.00 0.00 93 1000.9
20260903022705 52 245 2.0 4.0 0.00 0.00 0.00 93 1001.1
20260903021806 52 244 1.0 4.0 0.00 0.00 0.00 92 1001.1
20260903020905 52 237 1.0 4.0 0.00 0.00 0.00 92 1001.4
20260903020024 52 239 2.0 6.0 0.00 0.00 0.00 91 1001.3
20260903015403 52 248 3.0 7.0 0.00 0.00 0.00 90 1001.3
20260903014506 53 261 4.0 7.0 0.00 0.00 0.00 90 1001.2
20260903013605 53 255 4.0 11.0 0.00 0.00 0.00 90 1001.3
20260903012703 53 231 4.0 11.0 0.00 0.00 0.00 89 1001.3
20260903011803 53 246 6.0 11.0 0.00 0.00 0.00 89 1001.4
20260903010905 53 245 7.0 9.0 0.00 0.00 0.00 88 1001.3
20260903010005 53 244 6.0 9.0 0.00 0.00 0.00 88 1001.3
20260903005403 53 248 4.0 9.0 0.00 0.00 0.00 87 1001.2
20260903004505 53 241 5.0 9.0 0.00 0.00 0.00 87 1001.3
20260903003603 53 239 2.0 6.0 0.00 0.00 0.00 86 1001.5
20260903002724 54 233 3.0 8.0 0.00 0.00 0.00 86 1001.5
20260903001803 54 265 2.0 4.0 0.00 0.00 0.00 85 1001.4
20260903000903 54 252 3.0 4.0 0.00 0.00 0.00 85 1001.8
20260903000005 54 214 0.0 4.0 0.00 0.00 0.00 84 1001.4
20260902235403 54 230 2.0 4.0 0.00 0.00 0.00 83 1001.5
20260902234505 54 253 2.0 6.0 0.00 0.00 0.00 83 1001.6
20260902233626 55 249 4.0 7.0 0.00 0.00 0.00 81 1001.3
20260902232706 55 240 4.0 7.0 0.00 0.00 0.00 81 1001.3
20260902231805 55 242 2.0 11.0 0.00 0.00 0.00 80 1001.5
20260902230903 55 248 5.0 11.0 0.00 0.00 0.00 79 1001.4
20260902230003 56 258 6.0 11.0 0.00 0.00 0.00 78 1001.4
20260902225424 56 243 7.0 11.0 0.00 0.00 0.00 78 1001.5
20260902224526 56 237 4.0 13.0 0.00 0.00 0.00 77 1001.5
20260902223603 56 242 6.0 9.0 0.00 0.00 0.00 77 1001.5
20260902222724 56 230 2.0 15.0 0.00 0.00 0.00 77 1001.5
20260902221826 56 232 4.0 14.0 0.00 0.00 0.00 76 1001.8
20260902220903 56 244 4.0 14.0 0.00 0.00 0.00 75 1001.7
20260902220024 56 245 4.0 11.0 0.00 0.00 0.00 75 1001.7
20260902215426 56 225 4.0 11.0 0.00 0.00 0.00 75 1001.6
20260902214505 56 225 5.0 8.0 0.00 0.00 0.00 75 1001.9
20260902213603 56 238 2.0 11.0 0.00 0.00 0.00 74 1001.7
20260902212704 56 225 4.0 8.0 0.00 0.00 0.00 73 1001.8
20260902211803 56 218 5.0 8.0 0.00 0.00 0.00 73 1001.8
20260902210903 56 227 2.0 7.0 0.00 0.00 0.00 73 1001.8
20260902210003 57 242 3.0 9.0 0.00 0.00 0.00 72 1001.8
20260902205403 57 235 5.0 9.0 0.00 0.00 0.00 71 1001.8
20260902204505 57 242 5.0 9.0 0.00 0.00 0.00 71 1001.9
20260902203603 57 234 2.0 11.0 0.00 0.00 0.00 70 1001.7
20260902202705 57 230 5.0 8.0 0.00 0.00 0.00 69 1002.0
20260902201807 57 236 2.0 7.0 0.00 0.00 0.00 70 1001.9
20260902200924 57 234 3.0 7.0 0.00 0.00 0.00 68 1002.1
20260902200003 57 218 3.0 7.0 0.00 0.00 0.00 68 1001.9
20260902195403 58 227 3.0 6.0 0.00 0.00 0.00 67 1001.9
20260902194524 58 212 2.0 6.0 0.00 0.00 0.00 67 1001.7
20260902193603 58 214 2.0 6.0 0.00 0.00 0.00 66 1002.0
20260902192724 58 199 2.0 7.0 0.00 0.00 0.00 65 1001.8
20260902191803 59 203 2.0 6.0 0.00 0.00 0.00 64 1001.9
20260902190903 59 227 2.0 6.0 0.00 0.00 0.00 64 1001.7
20260902190005 59 214 2.0 4.0 0.00 0.00 0.00 63 1001.9
20260902185403 60 225 1.0 4.0 0.00 0.00 0.00 62 1002.0
20260902184503 60 212 2.0 4.0 0.00 0.00 0.00 61 1001.7
20260902183603 60 203 2.0 4.0 0.00 0.00 0.00 60 1001.5
20260902182703 61 210 2.0 6.0 0.00 0.00 0.00 59 1001.8
20260902181803 62 230 4.0 7.0 0.00 0.00 0.00 58 1001.6
20260902180905 62 229 2.0 4.0 0.00 0.00 0.00 58 1001.7
20260902180005 62 225 2.0 8.0 0.00 0.00 0.00 57 1001.6
20260902175403 62 229 2.0 8.0 0.00 0.00 0.00 56 1001.7
20260902174503 63 233 4.0 7.0 0.00 0.00 0.00 55 1001.4
20260902173603 63 229 3.0 8.0 0.00 0.00 0.00 55 1001.5
20260902172724 64 250 4.0 9.0 0.00 0.00 0.00 54 1001.4
20260902171803 64 232 2.0 8.0 0.00 0.00 0.00 54 1001.4
20260902170903 64 238 4.0 11.0 0.00 0.00 0.00 53 1001.4
20260902170003 65 230 5.0 11.0 0.00 0.00 0.00 53 1001.4
20260902165403 65 232 5.0 11.0 0.00 0.00 0.00 52 1001.4
20260902164503 65 255 7.0 15.0 0.00 0.00 0.00 51 1001.6
20260902163624 66 249 6.0 11.0 0.00 0.00 0.00 52 1001.5
20260902162703 66 242 6.0 15.0 0.00 0.00 0.00 51 1001.4
20260902161803 66 241 10.0 15.0 0.00 0.00 0.00 50 1001.4
20260902160904 66 244 8.0 20.0 0.00 0.00 0.00 50 1001.2
20260902160007 67 236 8.0 15.0 0.00 0.00 0.00 50 1001.2
20260902155404 66 241 7.0 15.0 0.00 0.00 0.00 50 1001.3
20260902154524 66 244 6.0 14.0 0.00 0.00 0.00 50 1001.2
20260902153603 66 251 8.0 16.0 0.00 0.00 0.00 49 1001.5
20260902152703 66 238 8.0 17.0 0.00 0.00 0.00 49 1001.5
20260902151805 68 244 8.0 20.0 0.00 0.00 0.00 48 1001.5
20260902150924 67 238 10.0 18.0 0.00 0.00 0.00 48 1001.4
20260902150006 68 234 12.0 17.0 0.00 0.00 0.00 48 1001.6
20260902145404 67 239 10.0 16.0 0.00 0.00 0.00 48 1001.5
20260902144503 68 237 9.0 17.0 0.00 0.00 0.00 47 1001.6
20260902143603 67 236 8.0 17.0 0.00 0.00 0.00 48 1001.4
20260902142705 68 252 7.0 21.0 0.00 0.00 0.00 49 1001.3
20260902141803 68 232 10.0 20.0 0.00 0.00 0.00 48 1001.5
20260902140926 68 225 6.0 17.0 0.00 0.00 0.00 50 1001.4
20260902140004 68 224 11.0 25.0 0.00 0.00 0.00 51 1001.4
20260902135424 69 246 10.0 20.0 0.00 0.00 0.00 55 1001.6
20260902134526 68 234 11.0 20.0 0.00 0.00 0.00 57 1001.5
20260902133603 68 256 10.0 20.0 0.00 0.00 0.00 59 1001.4
20260902132703 68 248 8.0 17.0 0.00 0.00 0.00 59 1001.5
20260902131803 67 230 7.0 17.0 0.00 0.00 0.00 60 1001.3
20260902130903 68 221 8.0 15.0 0.00 0.00 0.00 60 1001.3
20260902130004 67 193 7.0 16.0 0.00 0.00 0.00 61 1001.5
20260902125404 68 200 11.0 16.0 0.00 0.00 0.00 58 1001.3
20260902124526 68 253 6.0 14.0 0.00 0.00 0.00 60 1001.3
20260902123625 67 239 4.0 9.0 0.00 0.00 0.00 61 1001.4
20260902122703 68 215 6.0 13.0 0.00 0.00 0.00 60 1001.4
20260902121805 68 186 7.0 16.0 0.00 0.00 0.00 60 1001.4
20260902120903 67 226 6.0 15.0 0.00 0.00 0.00 60 1001.6
20260902120004 67 239 8.0 18.0 0.00 0.00 0.00 60 1001.7
20260902115404 68 230 13.0 18.0 0.00 0.00 0.00 58 1001.8
20260902114505 68 216 3.0 13.0 0.00 0.00 0.00 58 1001.8
20260902113603 69 241 7.0 16.0 0.00 0.00 0.00 57 1001.8
20260902112703 67 239 8.0 16.0 0.00 0.00 0.00 62 1002.0
20260902111803 66 236 4.0 11.0 0.00 0.00 0.00 63 1002.1
20260902110905 67 231 4.0 14.0 0.00 0.00 0.00 65 1002.2
20260902110005 66 245 2.0 8.0 0.00 0.00 0.00 68 1002.1
20260902105403 66 269 2.0 8.0 0.00 0.00 0.00 69 1002.3
20260902104505 65 289 3.0 9.0 0.00 0.00 0.00 70 1002.4
20260902103626 66 272 5.0 9.0 0.00 0.00 0.00 69 1002.4
20260902102703 67 234 4.0 9.0 0.00 0.00 0.00 66 1002.4
20260902101804 67 217 5.0 9.0 0.00 0.00 0.00 66 1002.8
20260902100903 65 227 5.0 11.0 0.00 0.00 0.00 69 1002.7
20260902100024 65 240 5.0 18.0 0.00 0.00 0.00 70 1002.6
20260902095403 64 243 7.0 18.0 0.00 0.00 0.00 72 1002.6
20260902094526 63 238 8.0 14.0 0.00 0.00 0.00 73 1002.6
20260902093605 63 246 5.0 11.0 0.00 0.00 0.00 74 1002.7
20260902092705 62 245 4.0 14.0 0.00 0.00 0.00 75 1003.1
20260902091803 63 228 6.0 14.0 0.00 0.00 0.00 74 1003.0
20260902090905 63 239 7.0 17.0 0.00 0.00 0.00 74 1002.7
20260902090004 64 223 5.0 14.0 0.00 0.00 0.00 72 1002.8
20260902085403 63 235 6.0 11.0 0.00 0.00 0.00 73 1002.9
20260902084503 63 238 4.0 14.0 0.00 0.00 0.00 73 1002.9
20260902083626 63 236 4.0 11.0 0.00 0.00 0.00 73 1002.8
20260902082703 63 238 5.0 9.0 0.00 0.00 0.00 73 1002.7
20260902081803 64 238 4.0 11.0 0.00 0.00 0.00 73 1002.8
20260902080903 62 258 5.0 11.0 0.00 0.00 0.00 76 1002.8
20260902080005 62 210 5.0 11.0 0.00 0.00 0.00 76 1002.6
20260902075403 62 162 2.0 4.0 0.00 0.00 0.00 82 1002.7
20260902074503 61 138 2.0 4.0 0.00 0.00 0.00 86 1002.5
20260902073603 60 133 2.0 4.0 0.00 0.00 0.00 89 1002.7
20260902072703 60 121 2.0 6.0 0.00 0.00 0.00 89 1002.6
20260902071803 59 146 4.0 6.0 0.00 0.00 0.00 89 1003.0
20260902070903 60 146 2.0 6.0 0.00 0.00 0.00 88 1002.9
20260902070007 59 144 3.0 6.0 0.00 0.00 0.00 89 1002.8
20260902065403 59 130 3.0 6.0 0.00 0.00 0.00 89 1002.7
20260902064503 58 134 3.0 4.0 0.00 0.00 0.00 91 1002.8
20260902063603 58 130 2.0 4.0 0.00 0.00 0.00 92 1002.6
20260902062703 58 124 2.0 4.0 0.00 0.00 0.00 93 1002.7
20260902061803 57 133 2.0 4.0 0.00 0.00 0.00 93 1002.9
20260902060905 58 147 2.0 4.0 0.00 0.00 0.00 92 1002.8
20260902060005 58 143 2.0 4.0 0.00 0.00 0.00 91 1002.9
20260902055405 58 128 2.0 4.0 0.00 0.00 0.00 90 1002.8
20260902054505 58 112 1.0 2.0 0.00 0.00 0.00 91 1002.8
20260902053624 58 131 1.0 2.0 0.00 0.00 0.00 91 1002.6
20260902052703 57 135 1.0 2.0 0.00 0.00 0.00 92 1002.8
20260902051824 57 126 1.0 2.0 0.00 0.00 0.00 92 1002.8
20260902050903 57 112 1.0 2.0 0.00 0.00 0.00 93 1003.0
20260902050005 56 112 0.0 4.0 0.00 0.00 0.00 95 1002.9
20260902045403 56 121 1.0 4.0 0.00 0.00 0.00 96 1003.0
20260902044503 56 145 0.0 2.0 0.00 0.00 0.00 95 1003.1
20260902043605 56 157 1.0 2.0 0.00 0.00 0.00 95 1003.0
20260902042703 56 161 2.0 4.0 0.00 0.00 0.00 95 1002.9
20260902041826 56 171 3.0 4.0 0.00 0.00 0.00 96 1002.7